Weather History for Glasgow, KY

Change the Weather History Date:

Wednesday, April 30, 2014

  Actual Average Record
Temperature  
Mean Temperature 60 °F -  
Max Temperature 68 °F 74 °F 89 °F (1986)
Min Temperature 51 °F 49 °F 35 °F (1988)
Degree Days  
Heating Degree Days 6    
Growing Degree Days 10 (Base 50)    
Moisture  
Dew Point 50 °F    
Average Humidity 76    
Maximum Humidity 100    
Minimum Humidity 45    
Precipitation  
Precipitation 0.04 in - - ()
Sea Level Pressure  
Sea Level Pressure 29.85 in    
Wind  
Wind Speed 5 mph (WSW)    
Max Wind Speed 20 mph    
Max Gust Speed 25 mph    
Visibility 10 miles    
Events Rain    
Averages and records for this station are not official NWS values.
T = Trace of Precipitation, MM = Missing Value Source: NWS Daily Summary

Daily Weather History Graph

Daily Weather History Graph

Search for Another Location

Airport:

Trip Planner

Search our weather history database for the weather conditions in past years. The results will help you decide how hot, cold, wet, or windy it might be!

Date:

Astronomy

Apr. 30, 2014 Rise Set
Actual Time 5:50 AM CDT 7:32 PM CDT
Civil Twilight 5:22 AM CDT 7:59 PM CDT
Nautical Twilight 4:49 AM CDT 8:33 PM CDT
Astronomical Twilight 4:13 AM CDT 9:09 PM CDT
Moon 6:52 AM CDT (4/30) 9:09 PM CDT (4/30)
Length of Visible Light 14h 37m
Length of Day
13h 41m
New Moon, 2% of the Moon is Illuminated
Apr 30
New Moon
May 6
First Quarter
May 14
Full
May 21
Last Quarter
May 28
New

Hourly Weather History & Observations

Time (CDT) Temp. Dew Point Humidity Pressure Visibility Wind Dir Wind Speed Gust Speed Precip Events Conditions
12:15 AM 54.5 °F 54.5 °F 100% 29.80 in 7.0 mi East 6.9 mph - 0.03 in Rain Light Rain
12:35 AM 54.3 °F 54.3 °F 100% 29.80 in 10.0 mi ESE 6.9 mph - 0.04 in Rain Light Rain
12:55 AM 54.5 °F 54.5 °F 100% 29.80 in 10.0 mi SSE 3.5 mph - 0.04 in   Overcast
1:15 AM 54.5 °F 54.5 °F 100% 29.80 in 10.0 mi SE 4.6 mph - N/A   Overcast
1:35 AM 54.5 °F 54.5 °F 100% 29.81 in 10.0 mi Calm Calm - N/A   Overcast
1:55 AM 54.7 °F 54.7 °F 100% 29.78 in 10.0 mi Calm Calm - N/A   Overcast
2:15 AM 54.5 °F 54.5 °F 100% 29.79 in 10.0 mi ESE 4.6 mph - N/A   Overcast
2:55 AM 54.5 °F 54.5 °F 100% 29.78 in 10.0 mi Calm Calm - N/A   Overcast
3:15 AM 54.5 °F 54.5 °F 100% 29.78 in 10.0 mi Calm Calm - N/A   Overcast
3:35 AM 54.5 °F 54.5 °F 100% 29.78 in 10.0 mi Calm Calm - N/A   Overcast
3:55 AM 54.5 °F 54.5 °F 100% 29.78 in 10.0 mi Calm Calm - N/A   Overcast
4:15 AM 54.5 °F 54.5 °F 100% 29.77 in 10.0 mi Calm Calm - N/A   Overcast
4:35 AM 54.5 °F 54.5 °F 100% 29.77 in 10.0 mi Calm Calm - N/A   Overcast
4:55 AM 54.5 °F 54.5 °F 100% 29.78 in 10.0 mi Calm Calm - N/A   Overcast
5:15 AM 54.7 °F 54.7 °F 100% 29.78 in 10.0 mi Calm Calm - N/A   Overcast
5:35 AM 54.7 °F 54.7 °F 100% 29.79 in 10.0 mi Calm Calm - N/A   Overcast
5:55 AM 54.7 °F 54.7 °F 100% 29.78 in 10.0 mi Calm Calm - N/A   Overcast
6:15 AM 54.7 °F 54.7 °F 100% 29.79 in 10.0 mi Calm Calm - N/A   Overcast
6:35 AM 54.7 °F 54.7 °F 100% 29.81 in 10.0 mi Calm Calm - N/A   Overcast
6:55 AM 54.9 °F 54.9 °F 100% 29.80 in 10.0 mi Calm Calm - N/A   Overcast
7:15 AM 55.4 °F 55.4 °F 100% 29.80 in 10.0 mi Calm Calm - N/A   Overcast
7:35 AM 55.6 °F 55.6 °F 100% 29.81 in 10.0 mi Calm Calm - N/A   Overcast
7:55 AM 56.1 °F 55.8 °F 99% 29.81 in 7.0 mi Calm Calm - N/A   Overcast
8:15 AM 56.5 °F 55.9 °F 98% 29.83 in 10.0 mi Calm Calm - N/A   Overcast
8:35 AM 57.0 °F 55.4 °F 94% 29.82 in 10.0 mi WSW 4.6 mph - N/A   Overcast
8:55 AM 58.1 °F 54.9 °F 89% 29.82 in 10.0 mi SW 5.8 mph - N/A   Overcast
9:15 AM 58.6 °F 56.1 °F 91% 29.81 in 10.0 mi Calm Calm - N/A   Overcast
9:35 AM 59.7 °F 54.9 °F 84% 29.81 in 10.0 mi Calm Calm - N/A   Overcast
9:55 AM 60.8 °F 54.7 °F 80% 29.81 in 10.0 mi WSW 4.6 mph - N/A   Overcast
10:15 AM 61.5 °F 54.5 °F 78% 29.82 in 10.0 mi WSW 6.9 mph - N/A   Mostly Cloudy
10:35 AM 63.1 °F 54.3 °F 73% 29.83 in 10.0 mi WSW 6.9 mph - N/A   Mostly Cloudy
10:55 AM 63.5 °F 54.5 °F 72% 29.83 in 10.0 mi WSW 6.9 mph - N/A   Mostly Cloudy
11:15 AM 63.9 °F 53.6 °F 69% 29.83 in 10.0 mi SW 4.6 mph - N/A   Scattered Clouds
11:35 AM 64.8 °F 53.2 °F 66% 29.83 in 10.0 mi SW 3.5 mph - N/A   Scattered Clouds
11:55 AM 65.8 °F 53.8 °F 65% 29.83 in 10.0 mi WSW 4.6 mph - N/A   Scattered Clouds
12:15 PM 66.6 °F 53.2 °F 62% 29.81 in 10.0 mi West 8.1 mph - N/A   Scattered Clouds
12:35 PM 66.9 °F 53.2 °F 61% 29.81 in 10.0 mi WSW 6.9 mph - N/A   Mostly Cloudy
12:55 PM 66.6 °F 52.2 °F 60% 29.82 in 10.0 mi West 9.2 mph - N/A   Overcast
1:15 PM 66.4 °F 52.0 °F 60% 29.81 in 10.0 mi West 6.9 mph - N/A   Overcast
1:35 PM 68.0 °F 50.5 °F 54% 29.81 in 10.0 mi West 17.3 mph 23.0 mph N/A   Mostly Cloudy
1:55 PM 68.7 °F 48.2 °F 48% 29.82 in 10.0 mi WSW 15.0 mph 19.6 mph N/A   Overcast
2:15 PM 68.4 °F 46.2 °F 45% 29.83 in 10.0 mi WSW 17.3 mph 24.2 mph N/A   Mostly Cloudy
2:35 PM 68.7 °F 46.8 °F 45% 29.83 in 10.0 mi WSW 18.4 mph 24.2 mph N/A   Scattered Clouds
2:55 PM 67.5 °F 46.0 °F 46% 29.83 in 10.0 mi West 10.4 mph 20.7 mph N/A   Mostly Cloudy
3:15 PM 67.1 °F 46.4 °F 47% 29.83 in 10.0 mi WSW 19.6 mph 25.3 mph N/A   Overcast
3:35 PM 66.7 °F 46.0 °F 47% 29.83 in 10.0 mi West 16.1 mph 21.9 mph N/A   Overcast
3:55 PM 65.8 °F 45.9 °F 48% 29.83 in 10.0 mi WSW 13.8 mph 19.6 mph N/A   Mostly Cloudy
4:15 PM 65.7 °F 45.7 °F 48% 29.83 in 10.0 mi West 9.2 mph 21.9 mph N/A   Mostly Cloudy
4:55 PM 65.5 °F 45.7 °F 49% 29.85 in 10.0 mi West 13.8 mph 21.9 mph N/A   Scattered Clouds
5:15 PM 64.8 °F 45.5 °F 50% 29.85 in 10.0 mi WNW 11.5 mph 18.4 mph N/A   Scattered Clouds
5:35 PM 64.6 °F 45.5 °F 50% 29.86 in 10.0 mi West 11.5 mph 18.4 mph N/A   Scattered Clouds
5:55 PM 63.7 °F 45.7 °F 52% 29.87 in 10.0 mi West 12.7 mph 19.6 mph N/A   Scattered Clouds
6:15 PM 61.3 °F 45.1 °F 55% 29.88 in 10.0 mi WNW 10.4 mph 16.1 mph N/A   Mostly Cloudy
6:35 PM 60.3 °F 44.4 °F 56% 29.90 in 10.0 mi West 8.1 mph 23.0 mph N/A   Overcast
6:55 PM 58.6 °F 43.7 °F 58% 29.91 in 10.0 mi West 8.1 mph 17.3 mph N/A   Overcast
7:15 PM 57.7 °F 43.3 °F 59% 29.91 in 10.0 mi West 10.4 mph 18.4 mph N/A   Overcast
7:35 PM 57.2 °F 43.0 °F 59% 29.92 in 10.0 mi West 10.4 mph 17.3 mph N/A   Overcast
7:55 PM 56.8 °F 42.3 °F 58% 29.92 in 10.0 mi West 9.2 mph - N/A   Overcast
8:15 PM 56.3 °F 42.4 °F 60% 29.93 in 10.0 mi West 9.2 mph - N/A   Overcast
8:35 PM 55.8 °F 42.6 °F 61% 29.95 in 10.0 mi West 8.1 mph - N/A   Overcast
8:55 PM 55.4 °F 42.8 °F 63% 29.96 in 10.0 mi West 6.9 mph - N/A   Overcast
9:15 PM 54.9 °F 43.2 °F 65% 29.96 in 10.0 mi WNW 6.9 mph - N/A   Overcast
9:35 PM 54.3 °F 43.5 °F 67% 29.97 in 10.0 mi West 3.5 mph - N/A   Overcast
9:55 PM 54.0 °F 43.5 °F 68% 29.98 in 10.0 mi West 8.1 mph - N/A   Overcast
10:15 PM 53.4 °F 42.8 °F 67% 29.97 in 10.0 mi West 4.6 mph - N/A   Overcast
10:35 PM 52.7 °F 43.0 °F 70% 29.97 in 10.0 mi West 4.6 mph - N/A   Overcast
10:55 PM 52.7 °F 43.5 °F 71% 29.96 in 10.0 mi West 5.8 mph - N/A   Overcast
11:15 PM 52.2 °F 43.5 °F 72% 29.96 in 10.0 mi West 6.9 mph - N/A   Overcast
11:35 PM 51.8 °F 43.3 °F 73% 29.97 in 10.0 mi WSW 8.1 mph - N/A   Overcast
11:55 PM 51.8 °F 43.9 °F 74% 29.97 in 10.0 mi WSW 6.9 mph - N/A   Overcast